User: anonymous   Login
Location: Armidale
(30.5016°S, 151.6662°E)
Time: 01:30:02
(UTC+10:00)
Language:

JUGNU - Orbit

View from above orbital plane
View from above orbital plane
View from above satellite
View from above satellite

Ground track
Ground track

The orbit data is extracted from the following two-line orbital elements,

1 37839U 11058B   21215.28069617  .00000320  00000-0  28545-4 0  9998
2 37839  19.9619 305.2064 0018748 248.9141 141.5987 14.12720182507201
Epoch (UTC): 03 August 2021 06:44:12
Eccentricity: 0.0018748
inclination: 19.9619°
perigee height: 836 km
apogee height: 863 km
right ascension of ascending node: 305.2064°
argument of perigee: 248.9141°
revolutions per day: 14.12720182
mean anomaly at epoch: 141.5987°
orbit number at epoch: 50720

The dashed part of the orbit path shows where the satellite is in the earth's shadow,  

DLR